• In Czech Republic
  • List of Countries
  • For 7 days
  • Water Temperature
  • Satellite Maps
  • Weather Map
  • Weather Widgets
  • user-avatar
    Login

    Hourly Weather Shkoder

    Today, 14 November, Wednesday

    Time Temperature Precipitation Wind Pressure Humidity
    00:00 +14°C° 0 mm 2 mps 746 mmHg 57%
    01:00 +14°C° 0 mm 2 mps 746 mmHg 55%
    02:00 +14°C° 0 mm 2 mps 746 mmHg 56%
    03:00 +13°C° 0 mm 2 mps 746 mmHg 56%
    04:00 +13°C° 0 mm 2 mps 746 mmHg 56%
    05:00 +13°C° 0 mm 2 mps 746 mmHg 58%
    06:00 +13°C° 0 mm 2 mps 746 mmHg 61%
    07:00 +13°C° 0 mm 2 mps 746 mmHg 63%
    08:00 +15°C° 0 mm 2 mps 746 mmHg 59%
    09:00 +17°C° 0 mm 2 mps 746 mmHg 55%
    10:00 +19°C° 0 mm 2 mps 746 mmHg 52%
    11:00 +19°C° 0 mm 2 mps 746 mmHg 50%
    12:00 +20°C° 0 mm 2 mps 746 mmHg 49%
    13:00 +20°C° 0 mm 2 mps 745 mmHg 47%
    14:00 +19°C° 0 mm 2 mps 745 mmHg 50%
    15:00 +18°C° 0 mm 3 mps 745 mmHg 53%
    16:00 +17°C° 0 mm 3 mps 745 mmHg 57%
    17:00 +16°C° 0 mm 3 mps 745 mmHg 59%
    18:00 +14°C° 0 mm 3 mps 745 mmHg 61%
    19:00 +13°C° 0 mm 3 mps 745 mmHg 63%
    20:00 +12°C° 0 mm 3 mps 745 mmHg 63%
    21:00 +12°C° 0 mm 3 mps 745 mmHg 63%
    22:00 +11°C° 0 mm 3 mps 745 mmHg 63%
    23:00 +11°C° 0 mm 3 mps 745 mmHg 62%

    Tomorrow, 15 November, Thursday

    Time Temperature Precipitation Wind Pressure Humidity
    00:00 +10°C° 0 mm 4 mps 745 mmHg 61%
    01:00 +10°C° 0 mm 4 mps 745 mmHg 60%
    02:00 +8°C° 0 mm 4 mps 745 mmHg 60%
    03:00 +8°C° 0 mm 4 mps 745 mmHg 60%
    04:00 +7°C° 0 mm 4 mps 745 mmHg 60%
    05:00 +7°C° 0 mm 4 mps 745 mmHg 62%
    06:00 +7°C° 0 mm 4 mps 745 mmHg 63%
    07:00 +7°C° 0 mm 4 mps 746 mmHg 64%
    08:00 +10°C° 0 mm 4 mps 745 mmHg 57%
    09:00 +11°C° 0 mm 4 mps 745 mmHg 49%
    10:00 +13°C° 0 mm 4 mps 745 mmHg 42%
    11:00 +14°C° 0 mm 4 mps 745 mmHg 41%
    12:00 +14°C° 0 mm 4 mps 745 mmHg 40%
    13:00 +15°C° 0 mm 4 mps 744 mmHg 39%
    14:00 +14°C° 0 mm 4 mps 744 mmHg 43%
    15:00 +12°C° 0 mm 4 mps 744 mmHg 47%
    16:00 +11°C° 0 mm 3 mps 744 mmHg 51%
    17:00 +10°C° 0 mm 4 mps 744 mmHg 55%
    18:00 +8°C° 0 mm 4 mps 745 mmHg 59%
    19:00 +7°C° 0 mm 4 mps 745 mmHg 63%
    20:00 +7°C° 0 mm 4 mps 745 mmHg 66%
    21:00 +7°C° 0 mm 4 mps 746 mmHg 68%
    22:00 +6°C° 0 mm 4 mps 746 mmHg 70%
    23:00 +6°C° 0 mm 4 mps 746 mmHg 71%

    Day after tomorrow, 16 November, Friday

    Time Temperature Precipitation Wind Pressure Humidity
    00:00 +6°C° 0 mm 4 mps 746 mmHg 72%
    01:00 +5°C° 0 mm 4 mps 746 mmHg 73%
    02:00 +5°C° 0 mm 4 mps 746 mmHg 74%
    03:00 +5°C° 0 mm 4 mps 745 mmHg 74%
    04:00 +5°C° 0 mm 4 mps 745 mmHg 74%
    05:00 +5°C° 0 mm 4 mps 745 mmHg 75%
    06:00 +5°C° 0 mm 4 mps 746 mmHg 75%
    07:00 +5°C° 0 mm 4 mps 746 mmHg 75%
    08:00 +6°C° 0.1 mm 4 mps 746 mmHg 69%
    09:00 +8°C° 0.1 mm 5 mps 746 mmHg 63%
    10:00 +9°C° 0.1 mm 5 mps 746 mmHg 57%
    11:00 +10°C° 0 mm 5 mps 746 mmHg 55%
    12:00 +10°C° 0 mm 5 mps 746 mmHg 53%
    13:00 +12°C° 0 mm 5 mps 745 mmHg 51%
    14:00 +10°C° 0 mm 5 mps 745 mmHg 54%
    15:00 +9°C° 0 mm 5 mps 745 mmHg 58%
    16:00 +8°C° 0 mm 5 mps 745 mmHg 61%
    17:00 +8°C° 0 mm 5 mps 746 mmHg 65%
    18:00 +7°C° 0 mm 5 mps 746 mmHg 68%
    19:00 +6°C° 0 mm 5 mps 746 mmHg 72%
    20:00 +6°C° 0 mm 5 mps 747 mmHg 72%
    21:00 +5°C° 0 mm 5 mps 747 mmHg 73%
    22:00 +5°C° 0 mm 5 mps 747 mmHg 74%
    23:00 +5°C° 0 mm 5 mps 747 mmHg 74%

    17 November, Saturday

    Time Temperature Precipitation Wind Pressure Humidity
    00:00 +5°C° 0 mm 5 mps 747 mmHg 75%
    01:00 +3°C° 0 mm 5 mps 747 mmHg 75%
    02:00 +3°C° 0 mm 5 mps 747 mmHg 75%
    03:00 +3°C° 0 mm 5 mps 747 mmHg 75%
    04:00 +3°C° 0 mm 5 mps 746 mmHg 75%
    05:00 +3°C° 0 mm 5 mps 746 mmHg 74%
    06:00 +2°C° 0 mm 5 mps 746 mmHg 74%
    07:00 +2°C° 0 mm 5 mps 746 mmHg 73%
    08:00 +5°C° 0 mm 5 mps 746 mmHg 65%
    09:00 +6°C° 0 mm 5 mps 746 mmHg 58%
    10:00 +7°C° 0 mm 5 mps 746 mmHg 50%
    11:00 +8°C° 0 mm 5 mps 746 mmHg 47%
    12:00 +9°C° 0 mm 5 mps 746 mmHg 45%
    13:00 +10°C° 0 mm 5 mps 745 mmHg 42%
    14:00 +9°C° 0 mm 5 mps 745 mmHg 44%
    15:00 +8°C° 0 mm 5 mps 745 mmHg 47%
    16:00 +7°C° 0 mm 4 mps 744 mmHg 49%
    17:00 +6°C° 0 mm 5 mps 745 mmHg 51%
    18:00 +5°C° 0 mm 5 mps 745 mmHg 53%
    19:00 +3°C° 0 mm 5 mps 745 mmHg 55%
    20:00 +3°C° 0 mm 5 mps 745 mmHg 56%
    21:00 +3°C° 0 mm 5 mps 745 mmHg 57%
    22:00 +3°C° 0 mm 5 mps 744 mmHg 58%
    23:00 +3°C° 0 mm 5 mps 744 mmHg 59%

    18 November, Sunday

    Time Temperature Precipitation Wind Pressure Humidity
    00:00 +3°C° 0 mm 5 mps 744 mmHg 59%
    01:00 +3°C° 0 mm 5 mps 744 mmHg 59%
    02:00 +3°C° 0 mm 5 mps 743 mmHg 58%
    03:00 +3°C° 0 mm 5 mps 743 mmHg 58%
    04:00 +3°C° 0 mm 6 mps 742 mmHg 57%
    05:00 +3°C° 0 mm 6 mps 742 mmHg 57%
    06:00 +3°C° 0 mm 6 mps 741 mmHg 57%
    07:00 +3°C° 0 mm 6 mps 741 mmHg 57%
    08:00 +4°C° 0.1 mm 6 mps 741 mmHg 56%
    09:00 +5°C° 0.1 mm 6 mps 740 mmHg 55%
    10:00 +5°C° 0.1 mm 6 mps 740 mmHg 54%
    11:00 +7°C° 0.4 mm 6 mps 740 mmHg 55%
    12:00 +7°C° 0.4 mm 6 mps 739 mmHg 55%
    13:00 +8°C° 0.4 mm 5 mps 738 mmHg 56%
    14:00 +7°C° 0.8 mm 5 mps 738 mmHg 60%
    15:00 +7°C° 0.8 mm 5 mps 737 mmHg 65%
    16:00 +6°C° 0.8 mm 5 mps 737 mmHg 69%
    17:00 +6°C° 0.5 mm 5 mps 737 mmHg 71%
    18:00 +5°C° 0.5 mm 6 mps 737 mmHg 72%
    19:00 +5°C° 0.5 mm 6 mps 736 mmHg 74%
    20:00 +4°C° 0.2 mm 6 mps 736 mmHg 74%
    21:00 +4°C° 0.2 mm 6 mps 736 mmHg 74%
    22:00 +5°C° 0.2 mm 5 mps 735 mmHg 74%
    23:00 +5°C° 0.2 mm 5 mps 735 mmHg 74%

    19 November, Monday

    Time Temperature Precipitation Wind Pressure Humidity
    00:00 +5°C° 0.2 mm 5 mps 735 mmHg 74%
    01:00 +5°C° 0.2 mm 4 mps 734 mmHg 75%
    02:00 +5°C° 0.4 mm 4 mps 734 mmHg 76%
    03:00 +5°C° 0.4 mm 4 mps 734 mmHg 77%
    04:00 +4°C° 0.4 mm 4 mps 733 mmHg 78%
    05:00 +4°C° 0.3 mm 4 mps 733 mmHg 78%
    06:00 +4°C° 0.3 mm 4 mps 733 mmHg 79%
    07:00 +4°C° 0.3 mm 3 mps 733 mmHg 79%
    08:00 +4°C° 0.4 mm 3 mps 733 mmHg 78%
    09:00 +5°C° 0.4 mm 3 mps 734 mmHg 78%
    10:00 +5°C° 0.4 mm 3 mps 734 mmHg 78%
    11:00 +5°C° 0.5 mm 3 mps 734 mmHg 78%
    12:00 +5°C° 0.5 mm 3 mps 734 mmHg 78%
    13:00 +5°C° 0.5 mm 3 mps 734 mmHg 78%
    14:00 +4°C° 0.6 mm 3 mps 734 mmHg 80%
    15:00 +4°C° 0.6 mm 3 mps 734 mmHg 81%
    16:00 +4°C° 0.6 mm 3 mps 735 mmHg 82%
    17:00 +4°C° 0.3 mm 3 mps 735 mmHg 82%
    18:00 +3°C° 0.3 mm 3 mps 735 mmHg 82%
    19:00 +3°C° 0.3 mm 3 mps 736 mmHg 82%
    20:00 +3°C° 0.1 mm 3 mps 736 mmHg 83%
    21:00 +3°C° 0.1 mm 3 mps 737 mmHg 83%
    22:00 +2°C° 0.1 mm 3 mps 737 mmHg 83%
    23:00 +2°C° 0 mm 3 mps 738 mmHg 82%
    Show more